Flag for Liberia Weather past 2 weeks in Monrovia, Liberia

Now
79 °F

Passing clouds.


Feels Like: 83 °F
Forecast: 80 / 85 °F
Wind: No wind

Location: Roberts Field

Current Time: Apr 26, 2015 at 3:26:42 AM

Latest Report: Apr 26, 2015 at 3:00 AM


Visibility: N/A

Pressure: 29.89 "Hg

Humidity: 94%

Dew point: 77 °F

Location of MonroviaLocation

Historic Weather in Monrovia — Graph

°F

Monrovia temperature yesterday

Maximum temperature yesterday: 90 °F (at 1:30 PM)
Minimum temperature yesterday: 77 °F (at 5:30 AM)
Average temperature yesterday: 83 °F

Past Weeks' High & Low Weather Summary

 TemperatureHumidityPressure
High93 °F (Apr 21, 1:30 PM)100% (Apr 11, 3:30 AM)30.01 "Hg (Apr 11, 3:30 AM)
Low73 °F (Apr 13, 12:30 AM)55% (Apr 17, 5:00 PM)29.77 "Hg (Apr 20, 4:30 PM)
Average82 °F84%29.88 "Hg
* Reported Apr 11 3:30 AM — Apr 26 2:00 AM, Monrovia, Weather by CustomWeather, © 2015

Note: Actual official high and low records may vary slightly from our data, if they occured in-between our weather recording intervals... More about our weather records

Advertising

Monrovia weather history for previous 24 hours

 ConditionsComfort  
Time TempWeatherWind HumidityBarometerVisibility
2:00 AM
Sun, Apr 26
79 °FPassing clouds.No wind94%29.89 "HgN/A
1:30 AM79 °FPassing clouds.No wind94%29.89 "HgN/A
1:00 AM79 °FPassing clouds.No wind94%29.89 "HgN/A
12:30 AM79 °FPassing clouds.No wind94%29.92 "HgN/A
12:00 AM81 °FPassing clouds.3 mph94%29.95 "HgN/A
11:30 PM
Sat, Apr 25
81 °FPassing clouds.5 mph94%29.92 "HgN/A
11:00 PM81 °FPassing clouds.No wind94%29.92 "HgN/A
10:30 PM81 °FPassing clouds.3 mph94%29.95 "HgN/A
10:00 PM81 °FPassing clouds.3 mph94%29.92 "HgN/A
9:00 PM81 °FPassing clouds.No wind94%29.92 "HgN/A
8:30 PM81 °FPassing clouds.3 mph94%29.89 "HgN/A
8:00 PM81 °FPassing clouds.6 mph94%29.89 "HgN/A
7:30 PM81 °FPartly sunny.3 mph94%29.86 "HgN/A
7:00 PM81 °FPartly sunny.No wind94%29.86 "HgN/A
6:30 PM82 °FThunderstorms. Scattered clouds.6 mph84%29.86 "HgN/A
6:00 PM84 °FThunderstorms. Scattered clouds.5 mph79%29.86 "HgN/A
5:30 PM84 °FThunderstorms. Scattered clouds.9 mph79%29.86 "HgN/A
5:00 PM86 °FThunderstorms. Scattered clouds.6 mph75%29.83 "HgN/A
4:30 PM88 °FThunderstorms. Scattered clouds.10 mph70%29.83 "HgN/A
4:00 PM90 °FThunderstorms. Partly sunny.14 mph67%29.83 "HgN/A
3:30 PM90 °FPartly sunny.12 mph67%29.86 "HgN/A
3:00 PM90 °FPartly sunny.14 mph71%29.86 "HgN/A
2:30 PM90 °FPartly sunny.9 mph71%29.89 "HgN/A
2:00 PM90 °FPartly sunny.12 mph71%29.89 "HgN/A
1:30 PM90 °FPartly sunny.12 mph67%29.92 "HgN/A
1:00 PM88 °FPartly sunny.13 mph75%29.92 "HgN/A
12:30 PM88 °FPartly sunny.14 mph75%29.92 "HgN/A
12:00 PM88 °FPartly sunny.12 mph75%29.92 "HgN/A
11:30 AM88 °FPartly sunny.12 mph75%29.95 "HgN/A
11:00 AM88 °FPartly sunny.6 mph75%29.95 "HgN/A
10:30 AM88 °FPartly sunny.No wind75%29.95 "HgN/A
10:00 AM86 °FPartly sunny.No wind79%29.95 "HgN/A
9:30 AM84 °FPartly sunny.No wind84%29.95 "HgN/A
9:00 AM82 °FThunderstorms. Scattered clouds.No wind84%29.92 "HgN/A
8:30 AM81 °FThunderstorms. Scattered clouds.No wind94%29.92 "HgN/A
8:00 AM81 °FThunderstorms. Scattered clouds.No wind94%29.92 "HgN/A
7:30 AM79 °FThunderstorms. Scattered clouds.No wind94%29.92 "HgN/A
7:00 AM79 °FPassing clouds.No wind94%29.92 "HgN/A
6:30 AM77 °FPassing clouds.No wind94%29.92 "HgN/A
6:00 AM77 °FPassing clouds.No wind94%29.89 "HgN/A
5:30 AM77 °FPassing clouds.No wind94%29.89 "HgN/A
5:00 AM79 °FPassing clouds.No wind89%29.86 "HgN/A
4:30 AM79 °FPassing clouds.No wind89%29.86 "HgN/A
Weather by CustomWeather, © 2015

See weather overviewHow to use our weather pages